| time (UTC) | temp F | wind direction | speed MPH | gust MPH | rain 1hr in | rain 24hr in | rain mn in | humidity % | barometer mb |
| 20260505184004 | 53 | 164 | 10.0 | 10.0 | 0.00 | 0.00 | 0.00 | 77 | 1013.9 |
| 20260505182004 | 54 | 162 | 10.0 | 10.0 | 0.00 | 0.00 | 0.00 | 74 | 1014.2 |
| 20260505180004 | 55 | 272 | 3.0 | 3.0 | 0.00 | 0.00 | 0.00 | 74 | 1014.2 |
| 20260505175004 | 54 | 110 | 3.0 | 5.0 | 0.00 | 0.00 | 0.00 | 74 | 1013.9 |
| 20260505174004 | 54 | 131 | 5.0 | 5.0 | 0.00 | 0.00 | 0.00 | 75 | 1014.2 |
| 20260505172004 | 55 | 146 | 5.0 | 5.0 | 0.00 | 0.00 | 0.00 | 74 | 1014.2 |
| 20260505171004 | 55 | 146 | 5.0 | 5.0 | 0.00 | 0.00 | 0.00 | 74 | 1014.2 |
| 20260505170004 | 55 | 221 | 3.0 | 3.0 | 0.00 | 0.00 | 0.00 | 72 | 1014.2 |
| 20260505164004 | 56 | 236 | 5.0 | 8.0 | 0.00 | 0.00 | 0.00 | 72 | 1014.2 |
| 20260505163005 | 56 | 267 | 2.0 | 8.0 | 0.00 | 0.00 | 0.00 | 69 | 1014.2 |
| 20260505162004 | 56 | 272 | 2.0 | 2.0 | 0.00 | 0.00 | 0.00 | 69 | 1014.2 |
| 20260505161005 | 56 | 272 | 2.0 | 3.0 | 0.00 | 0.00 | 0.00 | 69 | 1014.2 |
| 20260505153004 | 57 | 134 | 5.0 | 5.0 | 0.00 | 0.00 | 0.00 | 68 | 1014.2 |
| 20260505152004 | 57 | 176 | 3.0 | 5.0 | 0.00 | 0.00 | 0.00 | 68 | 1014.2 |
| 20260505151005 | 56 | 252 | 5.0 | 6.0 | 0.00 | 0.00 | 0.00 | 69 | 1014.2 |
| 20260505125004 | 55 | 248 | 7.0 | 7.0 | 0.00 | 0.00 | 0.00 | 68 | 1015.2 |
| 20260505124004 | 55 | 274 | 7.0 | 7.0 | 0.00 | 0.00 | 0.00 | 68 | 1014.9 |
| 20260505123004 | 55 | 274 | 5.0 | 7.0 | 0.00 | 0.00 | 0.00 | 68 | 1014.9 |
| 20260505122004 | 55 | 227 | 6.0 | 6.0 | 0.00 | 0.00 | 0.00 | 69 | 1015.2 |
| 20260505121006 | 55 | 227 | 5.0 | 6.0 | 0.00 | 0.00 | 0.00 | 69 | 1015.2 |
| 20260505120005 | 56 | 115 | 6.0 | 6.0 | 0.00 | 0.00 | 0.00 | 69 | 1015.6 |
| 20260505115004 | 56 | 115 | 6.0 | 7.0 | 0.00 | 0.00 | 0.00 | 69 | 1015.6 |
| 20260505114005 | 56 | 160 | 6.0 | 7.0 | 0.00 | 0.00 | 0.00 | 69 | 1015.6 |
| 20260505113004 | 55 | 177 | 7.0 | 7.0 | 0.00 | 0.00 | 0.00 | 70 | 1015.2 |
| 20260505102004 | 55 | 140 | 4.0 | 6.0 | 0.00 | 0.00 | 0.00 | 73 | 1015.9 |
| 20260505101004 | 55 | 277 | 6.0 | 6.0 | 0.00 | 0.00 | 0.00 | 74 | 1015.9 |
| 20260505100004 | 55 | 192 | 5.0 | 5.0 | 0.00 | 0.00 | 0.00 | 73 | 1015.8 |
| 20260505095005 | 55 | 272 | 5.0 | 6.0 | 0.00 | 0.00 | 0.00 | 72 | 1015.6 |
| 20260505094004 | 53 | 182 | 5.0 | 6.0 | 0.00 | 0.00 | 0.00 | 76 | 1016.0 |
| 20260505093004 | 53 | 138 | 6.0 | 6.0 | 0.00 | 0.00 | 0.00 | 76 | 1016.3 |
| 20260505092004 | 54 | 218 | 6.0 | 6.0 | 0.00 | 0.00 | 0.00 | 75 | 1015.6 |
| 20260505091004 | 53 | 182 | 5.0 | 5.0 | 0.00 | 0.00 | 0.00 | 77 | 1015.6 |
| 20260505085004 | 52 | 116 | 5.0 | 5.0 | 0.00 | 0.00 | 0.00 | 80 | 1015.6 |
| 20260505084004 | 52 | 110 | 5.0 | 5.0 | 0.00 | 0.00 | 0.00 | 82 | 1015.6 |
| 20260505083005 | 52 | 188 | 5.0 | 6.0 | 0.00 | 0.00 | 0.00 | 82 | 1015.6 |
| 20260505081004 | 52 | 211 | 3.0 | 6.0 | 0.00 | 0.00 | 0.00 | 80 | 1015.6 |
| 20260505080004 | 52 | 208 | 3.0 | 3.0 | 0.00 | 0.00 | 0.00 | 82 | 1015.9 |
| 20260505075004 | 51 | 145 | 5.0 | 6.0 | 0.00 | 0.00 | 0.00 | 83 | 1015.9 |
| 20260505074004 | 51 | 144 | 6.0 | 6.0 | 0.00 | 0.00 | 0.00 | 83 | 1015.9 |
| 20260505073004 | 51 | 159 | 6.0 | 6.0 | 0.00 | 0.00 | 0.00 | 87 | 1016.3 |
| 20260505072004 | 51 | 159 | 6.0 | 6.0 | 0.00 | 0.00 | 0.00 | 87 | 1016.3 |
| 20260505070005 | 50 | 159 | 6.0 | 6.0 | 0.00 | 0.00 | 0.00 | 89 | 1016.3 |
| 20260505065004 | 50 | 150 | 5.0 | 6.0 | 0.00 | 0.00 | 0.00 | 89 | 1016.6 |
| 20260505064004 | 50 | 131 | 5.0 | 6.0 | 0.00 | 0.00 | 0.00 | 89 | 1016.6 |
| 20260505063004 | 50 | 139 | 6.0 | 6.0 | 0.00 | 0.00 | 0.00 | 89 | 1016.6 |
| 20260505062004 | 50 | 116 | 3.0 | 6.0 | 0.00 | 0.00 | 0.00 | 89 | 1016.3 |
| 20260505060004 | 50 | 128 | 5.0 | 6.0 | 0.00 | 0.00 | 0.00 | 89 | 1016.3 |
| 20260505054004 | 50 | 131 | 5.0 | 6.0 | 0.00 | 0.00 | 0.00 | 89 | 1016.3 |
| 20260505053004 | 51 | 226 | 5.0 | 5.0 | 0.00 | 0.00 | 0.00 | 89 | 1016.3 |
| 20260505052004 | 51 | 154 | 5.0 | 5.0 | 0.00 | 0.00 | 0.00 | 90 | 1015.9 |
| 20260505051004 | 51 | 172 | 4.0 | 6.0 | 0.00 | 0.00 | 0.00 | 90 | 1015.9 |
| 20260505041004 | 51 | 134 | 5.0 | 6.0 | 0.00 | 0.00 | 0.00 | 90 | 1015.7 |
| 20260505040005 | 51 | 148 | 3.0 | 6.0 | 0.00 | 0.00 | 0.00 | 90 | 1015.9 |
| 20260505035004 | 50 | 166 | 3.0 | 6.0 | 0.00 | 0.00 | 0.00 | 90 | 1015.9 |
| 20260505034004 | 51 | 128 | 5.0 | 6.0 | 0.00 | 0.00 | 0.00 | 89 | 1015.9 |